Theta_e
313 306 305 309 308 309 314 319 325 320 317 320 323 320 318 310 316 315 316 316 317 318 319 319 319 320 319 315 316 318 319 320 321 323 324 324 325 327 330 331 335 333 336 344
313 306 306 309 308 307 309 323 322 319 317 323 322 320 318 316 316 316 316 316 316 317 318 319 320 320 316 315 317 321 322 321 321 322 321 324 324 325 328 330 329 336 336 343
311 306 306 309 308 307 309 322 323 322 320 319 318 319 319 318 316 315 315 316 316 316 317 318 320 319 317 315 315 318 317 322 322 321 321 325 325 324 326 328 332 331 331 346
310 305 306 309 307 307 311 323 321 318 320 320 318 318 319 318 318 316 315 316 316 316 317 318 318 318 318 316 317 315 318 321 321 321 323 324 325 324 325 328 328 330 331 338
308 305 308 308 307 309 314 319 320 320 318 317 318 313 321 318 317 315 317 315 315 317 316 319 319 319 318 317 317 317 318 320 321 321 323 324 324 325 324 326 328 328 328 331
307 305 308 307 307 310 318 317 316 317 314 317 317 318 316 315 315 314 313 314 314 314 317 316 316 316 316 317 317 318 319 320 321 321 321 323 324 324 326 326 328 329 329 341
305 305 308 307 307 308 314 315 315 318 320 316 316 314 314 315 316 316 314 314 314 315 314 314 314 315 315 315 315 315 318 321 322 323 322 322 322 324 324 325 327 328 330 344
305 306 308 307 307 308 312 314 316 319 319 315 315 315 315 314 312 315 313 314 314 313 313 313 314 314 315 315 314 315 316 317 320 323 322 322 321 322 323 323 326 328 331 341
304 307 308 307 307 308 311 313 314 317 319 316 315 314 315 317 316 315 314 313 312 313 314 318 320 324 317 318 316 315 315 316 317 321 321 322 337 333 333 333 330 342 341 341
305 307 308 307 307 307 311 314 314 317 318 314 314 315 314 315 315 316 314 315 315 315 323 323 320 319 319 320 318 316 315 316 317 319 322 330 332 332 330 336 344 340 340 343
305 307 307 307 307 308 310 314 313 317 318 315 313 313 313 312 314 316 316 317 318 319 321 323 321 319 318 320 319 320 316 316 317 318 320 324 332 335 338 337 338 337 340 340
306 307 307 307 307 306 309 316 311 313 317 315 312 311 313 315 315 316 316 318 318 317 320 316 317 320 317 319 321 317 319 318 317 317 320 330 329 333 333 332 334 335 337 336
306 307 307 307 307 306 310 313 312 313 315 313 312 313 312 312 313 313 316 316 316 315 312 313 315 317 315 317 319 320 319 319 321 320 330 328 327 329 330 330 331 329 330 331
306 307 307 306 307 306 310 315 313 313 315 316 314 312 312 312 313 313 314 315 313 310 310 311 313 315 316 318 318 318 319 319 321 320 325 325 326 327 328 329 329 329 327 329
306 307 307 307 306 308 311 314 313 313 315 319 315 312 312 312 313 313 314 314 315 314 311 310 311 312 313 314 313 315 313 316 321 323 321 325 325 324 324 328 328 328 328 328
307 307 307 306 306 307 312 315 314 313 313 315 314 314 313 312 312 313 314 315 315 315 316 313 310 308 310 313 314 312 312 311 312 316 317 320 321 322 322 324 325 326 329 329
307 307 306 306 306 310 313 313 312 310 312 315 316 314 313 311 313 314 315 315 316 316 319 318 313 311 309 313 314 311 310 310 312 315 319 320 321 322 319 321 323 324 325 325
307 306 306 306 307 310 312 311 310 309 313 314 318 317 316 313 315 315 315 319 316 321 320 317 316 313 313 313 312 310 309 309 312 314 317 317 318 317 317 317 322 326 326 326
306 306 306 308 310 312 314 311 309 312 314 318 318 320 318 315 315 317 318 318 320 317 318 315 315 314 316 314 313 311 309 309 311 312 313 313 315 315 316 316 321 322 323 323
306 308 312 314 314 310 310 311 314 313 313 315 319 319 319 315 316 317 320 322 322 321 318 314 315 316 312 310 312 311 309 310 310 312 313 313 313 311 314 315 318 319 320 320
310 313 313 309 309 310 313 316 316 316 318 317 319 319 319 317 318 319 318 323 322 321 319 318 319 317 311 309 311 308 304 306 308 307 307 310 310 311 312 314 316 317 318 318
314 314 310 309 311 314 316 317 318 317 321 320 320 320 318 317 316 318 318 320 322 321 317 318 319 313 311 310 309 308 305 303 303 303 303 304 306 307 310 315 314 316 316 316
314 315 315 314 316 318 319 323 321 323 321 322 321 320 318 317 316 319 321 321 321 317 319 319 316 314 313 310 309 308 307 306 304 304 305 305 306 306 307 309 312 313 314 314
317 318 317 320 320 320 322 324 325 324 323 322 319 320 319 321 321 321 321 321 320 321 321 318 315 314 314 313 311 310 310 309 308 306 306 307 307 307 307 308 308 310 310 311
320 321 325 323 322 322 322 324 324 324 322 321 319 319 318 319 320 321 320 319 319 320 319 318 317 315 313 313 313 312 311 310 310 310 309 309 308 308 307 307 307 308 308 308
316 321 323 324 323 320 320 321 323 322 319 316 317 317 318 319 320 320 319 320 319 319 315 315 316 315 314 312 311 311 311 310 310 309 308 308 308 309 308 308 307 307 308 307
318 322 318 320 319 322 323 322 322 318 321 320 316 319 317 317 319 320 317 317 315 315 313 313 314 314 313 312 311 310 309 309 309 308 307 307 307 308 308 308 309 308 308 308
Wind_Speed
22 26 29 25 28 32 13 11 5 6 2 7 8 3 6 4 4 1 3 5 9 11 11 8 13 6 9 5 6 9 11 12 14 22 10 18 17 20 19 12 18 15 15 2
22 25 26 22 22 23 13 5 9 5 4 5 8 8 2 5 8 4 6 5 2 9 10 5 14 6 9 8 6 7 11 7 11 15 14 17 20 21 20 17 16 19 14 4
20 23 24 20 18 18 10 5 4 4 3 3 7 10 7 3 5 7 6 11 6 10 8 6 8 9 4 3 7 9 5 9 14 11 15 12 20 22 21 21 13 16 18 16
18 20 20 18 15 15 6 4 5 5 6 7 9 6 8 7 3 3 5 5 4 10 9 12 8 11 4 5 5 7 5 13 17 20 18 15 15 21 26 21 21 18 17 14
15 18 16 15 14 15 5 5 5 5 2 4 7 4 8 7 6 4 6 4 10 13 6 12 13 15 2 8 8 9 12 13 14 16 14 18 14 13 19 20 18 20 21 10
13 15 12 11 11 12 6 7 6 4 3 5 6 7 5 4 3 5 4 7 7 9 12 8 9 16 13 10 6 8 12 10 10 15 14 15 15 16 12 15 20 18 16 8
11 12 8 7 6 7 9 8 10 6 5 4 7 5 4 5 10 8 5 5 5 8 8 11 13 17 15 13 12 10 12 9 9 11 14 18 13 15 14 13 14 12 17 16
8 9 6 5 3 5 9 7 7 6 6 7 6 5 6 6 4 2 5 5 7 9 12 11 11 12 15 17 16 14 14 11 8 9 12 13 19 11 11 17 15 12 14 11
7 7 5 4 2 2 8 4 5 7 6 6 7 3 2 7 7 7 3 5 3 6 9 4 5 3 2 8 15 16 14 11 9 9 14 19 10 12 21 14 11 15 16 13
6 4 4 3 2 2 6 5 4 8 7 6 2 2 1 2 3 4 3 2 0 3 3 3 6 1 7 5 5 15 11 11 12 12 9 3 10 12 17 9 7 11 11 12
4 4 5 3 3 2 6 2 3 6 5 6 1 2 1 2 4 3 4 2 2 4 3 3 4 7 4 6 6 4 8 9 9 11 16 11 12 6 6 7 14 16 13 11
5 5 5 5 4 3 4 5 2 3 7 7 1 1 4 6 9 4 4 4 4 4 3 1 4 4 5 11 6 2 5 4 4 3 6 11 12 12 11 12 10 13 13 15
6 8 7 6 6 4 3 6 2 3 5 4 6 8 7 6 3 6 1 3 3 5 5 2 2 5 6 5 6 10 8 12 7 9 13 10 10 12 11 11 11 9 10 13
7 9 9 7 6 6 2 5 3 6 7 4 7 4 9 8 7 2 7 15 16 11 4 2 1 4 7 4 7 9 5 11 9 10 7 4 12 10 12 12 12 11 9 10
10 10 10 8 7 5 2 7 2 4 7 5 5 8 11 10 10 7 9 15 8 4 3 2 2 3 3 4 5 5 5 6 5 3 14 9 8 9 12 13 13 10 7 7
10 11 10 10 9 4 3 2 2 5 5 4 3 10 9 14 11 9 11 12 5 3 4 3 3 1 1 1 2 2 7 9 12 7 18 8 8 8 12 11 14 3 8 16
12 12 12 11 8 2 2 2 3 5 5 3 4 6 8 12 11 12 7 15 6 4 2 3 4 3 4 1 2 9 12 12 14 16 10 8 3 5 13 13 19 13 9 10
14 12 12 10 7 2 3 2 3 3 6 4 4 3 7 15 8 6 2 3 1 2 2 5 4 5 2 1 5 6 9 9 11 5 1 2 3 8 9 18 14 6 8 7
14 14 12 7 3 2 2 3 3 2 3 4 3 1 2 9 7 4 9 5 3 2 3 5 6 3 1 3 3 4 7 5 11 2 2 2 7 10 9 14 9 7 9 8
18 12 5 3 3 1 1 2 4 3 2 3 3 3 5 4 4 7 5 4 2 3 5 3 1 3 2 9 9 6 7 6 10 6 3 6 3 8 11 11 4 6 6 7
3 5 2 3 5 1 3 2 2 2 3 4 5 6 4 3 1 3 4 4 3 2 4 5 3 3 6 6 11 13 16 9 7 5 9 9 4 6 9 9 7 7 6 6
2 9 7 3 2 2 2 3 3 4 3 5 6 4 4 2 2 3 2 1 4 2 4 3 3 6 8 10 7 12 17 14 15 18 14 12 13 13 15 2 7 3 7 9
4 2 4 3 4 4 4 5 3 3 5 4 5 4 2 3 3 1 2 3 1 2 2 2 4 8 7 8 8 7 15 14 12 11 14 13 14 14 12 12 12 9 9 11
1 3 2 4 4 6 5 7 3 1 3 7 4 4 2 1 2 2 2 1 1 2 2 2 8 10 8 8 8 9 11 12 13 13 16 13 8 8 7 10 9 11 13 11
3 4 4 7 4 3 2 3 5 4 6 7 5 3 1 1 2 2 2 5 2 3 1 5 7 9 8 6 8 4 8 10 10 14 13 14 14 14 12 9 11 15 14 16
3 5 6 6 5 3 6 8 6 6 7 5 3 2 2 3 2 4 2 4 2 3 5 7 9 8 7 5 5 14 13 7 11 9 9 11 10 11 12 11 10 11 12 12
4 4 6 5 2 3 8 8 7 11 3 2 2 3 4 3 1 2 2 2 6 10 6 9 10 9 7 8 12 12 10 10 8 9 9 10 7 5 4 4 7 10 9 7
Wind_Direction
329 334 337 342 348 345 355 285 273 94 283 251 232 2 36 343 1 71 313 299 300 311 331 279 269 38 74 37 350 293 267 277 260 269 198 225 229 225 237 229 237 250 262 63
328 333 335 341 352 360 334 281 302 118 262 283 324 94 136 333 344 14 336 314 307 350 301 290 283 27 75 27 338 23 340 235 251 258 265 216 228 242 225 244 237 240 256 111
321 330 332 338 347 348 338 278 276 167 195 322 312 339 279 143 107 305 337 315 351 301 273 255 288 279 105 41 294 3 300 273 274 255 239 317 209 229 240 235 233 241 238 135
315 327 329 334 343 339 326 252 35 5 346 26 329 351 348 308 149 51 304 287 252 291 305 281 232 258 194 185 174 253 247 269 276 280 303 300 292 213 225 232 233 239 239 175
314 322 328 335 340 335 252 318 349 350 8 339 282 124 80 311 56 5 348 330 348 315 338 351 343 342 227 271 180 239 256 265 281 284 292 284 275 280 223 235 229 241 256 250
311 318 323 336 344 345 293 12 272 275 140 228 266 60 63 87 345 83 32 322 316 297 8 335 324 312 318 309 329 298 294 276 256 264 260 258 257 253 259 237 237 234 240 79
306 310 314 331 351 346 316 337 301 276 256 310 42 109 124 96 25 344 70 332 6 355 311 290 269 272 262 276 269 261 267 280 275 273 261 248 238 226 247 261 267 270 250 95
297 300 297 313 335 321 319 328 300 305 310 74 134 163 120 116 141 296 323 52 15 320 290 271 259 236 243 234 235 233 247 252 262 250 253 263 246 216 227 225 244 273 298 57
293 287 278 293 294 280 317 1 302 287 302 70 74 160 269 268 176 150 163 107 345 306 305 100 264 298 224 232 210 214 218 228 253 255 240 239 37 344 344 321 201 17 8 21
276 268 260 271 254 265 328 330 338 285 292 88 252 314 155 345 313 166 140 110 318 332 344 312 289 211 311 242 220 175 202 216 218 234 253 146 354 331 329 248 25 354 14 21
247 233 231 227 203 214 326 16 326 320 315 105 282 308 150 180 276 355 66 36 346 11 333 333 319 324 315 269 142 234 205 195 224 229 237 240 356 50 4 343 342 4 3 11
214 203 213 204 190 199 287 275 327 299 275 57 137 262 332 338 355 0 97 120 65 19 63 10 303 318 313 323 302 8 243 317 274 215 220 68 45 70 50 22 355 2 14 358
199 188 196 198 178 192 298 336 4 254 271 173 195 204 205 219 231 18 346 92 74 81 43 70 297 276 315 281 308 332 309 22 304 320 84 69 45 53 42 31 13 20 18 4
189 190 190 196 181 180 295 304 28 281 299 288 149 123 161 189 167 129 49 101 92 106 100 110 245 276 9 341 308 312 16 303 316 276 96 126 64 32 12 17 9 12 43 28
181 188 190 181 172 166 327 308 330 332 315 334 148 158 179 187 172 170 129 130 152 134 118 133 210 305 317 354 301 273 358 345 315 34 335 346 17 5 6 357 351 9 27 57
174 181 179 167 170 175 310 214 47 344 334 281 224 85 163 179 176 201 141 167 167 191 154 164 175 128 217 325 289 270 339 308 297 285 304 325 332 334 6 341 328 7 21 22
170 172 165 164 168 198 296 18 332 334 311 253 256 159 167 189 184 216 181 189 197 174 184 147 147 172 196 253 295 339 306 316 303 288 282 269 4 341 336 329 312 306 101 62
162 157 154 159 163 241 256 214 284 327 278 270 276 127 160 186 214 211 237 77 22 197 256 156 147 147 171 222 261 316 329 316 305 320 81 23 359 357 358 336 318 268 73 69
150 140 132 126 208 238 59 268 186 269 291 301 278 269 119 163 211 198 200 157 181 203 262 183 166 118 39 304 290 346 354 320 303 276 314 35 42 355 5 338 290 66 58 25
139 136 188 164 60 61 91 210 190 185 202 244 263 267 206 228 155 199 138 185 191 202 218 94 83 84 359 60 93 102 25 344 343 304 24 332 70 7 357 327 325 46 50 35
189 209 77 129 137 219 238 211 207 180 218 229 236 261 267 297 243 243 173 192 178 221 195 176 140 105 102 95 97 108 77 31 34 49 14 25 22 6 343 303 318 74 55 51
105 120 113 125 195 229 231 200 178 222 250 195 201 194 219 269 284 240 264 18 197 224 154 142 92 122 111 109 98 115 113 116 94 77 54 27 19 12 329 70 8 88 79 57
166 153 148 178 177 214 213 194 213 215 197 214 176 175 184 216 255 261 256 247 230 91 132 101 116 134 122 102 100 99 131 116 131 124 104 95 69 47 27 12 15 51 78 64
228 173 226 226 194 231 200 213 205 188 174 147 174 150 233 53 256 229 240 91 353 57 64 126 145 140 123 116 109 87 54 57 129 173 169 129 133 185 150 74 44 40 50 53
248 220 241 219 250 210 316 125 110 118 137 139 128 92 27 204 236 227 198 169 95 119 110 104 132 143 128 119 125 109 70 59 61 62 54 53 74 105 102 89 82 69 55 52
272 247 278 343 353 276 165 110 106 131 111 97 87 124 228 215 247 201 194 107 127 92 128 115 128 144 137 122 99 82 99 144 101 100 71 74 61 31 32 47 64 70 73 65
280 345 2 358 21 353 67 74 63 29 47 99 135 193 196 207 117 94 31 92 141 102 83 81 103 122 152 136 110 106 101 88 54 51 55 22 60 122 108 76 23 11 42 79